Wind_Speed
4 6 9 7 5 2 2 0 1 4 6 6 6 6 5 9 9 6 10 8 18 18 16 19 20 23 26 13 13 14 16 11 8 15 13 9 12 13 11 13 12 8 8
6 9 9 7 4 2 2 0 1 3 6 8 7 6 10 14 11 7 11 12 23 17 16 21 17 17 14 13 15 17 11 6 3 8 11 12 12 11 12 11 10 9 10
7 10 10 7 5 3 2 2 3 4 5 5 9 12 15 15 11 11 13 15 22 22 19 20 13 12 14 14 18 14 10 6 4 3 5 8 11 9 8 8 8 8 8
10 12 11 9 6 3 4 6 5 5 9 11 16 17 16 14 12 11 12 14 17 24 16 15 11 18 11 13 11 10 8 6 6 4 4 6 5 5 6 7 8 9 10
13 13 13 8 7 4 8 11 12 16 18 18 16 15 15 14 10 12 15 15 19 20 19 19 14 13 13 10 6 8 6 5 8 3 2 3 4 3 3 5 7 10 10
16 15 13 11 11 8 10 12 21 19 19 17 14 13 10 11 9 10 12 13 16 16 15 18 16 13 14 9 7 5 6 8 6 1 3 4 3 3 4 4 5 6 8
19 17 15 12 13 10 13 14 19 16 15 14 12 9 8 9 9 9 11 11 15 13 13 16 17 14 12 12 8 12 10 8 6 3 3 3 2 3 5 5 6 8 8
22 20 18 15 15 16 17 17 14 14 13 13 13 8 9 13 11 10 11 15 15 13 17 16 16 12 13 12 12 10 7 7 5 1 1 1 2 5 5 6 6 7 8
26 23 20 16 18 18 18 19 17 15 16 17 17 17 15 16 15 15 14 15 16 17 17 16 16 17 15 12 9 8 7 6 5 2 1 3 5 6 6 7 8 8 8
29 26 23 20 20 21 20 20 21 18 18 17 17 16 17 21 17 16 15 18 21 22 21 19 17 15 14 12 9 8 5 4 3 3 3 4 5 5 6 6 6 7 8
31 29 26 25 21 22 24 23 22 20 20 20 20 20 19 19 18 15 16 17 19 21 20 18 17 13 11 8 7 5 3 3 2 1 2 4 5 6 7 7 8 8 9
34 33 30 27 26 24 23 24 24 21 20 21 18 18 17 19 20 18 17 15 16 15 17 15 13 11 8 6 5 4 2 2 1 2 3 4 5 5 6 6 7 7 8
38 36 33 29 27 27 27 28 25 22 18 16 13 16 20 20 21 20 18 16 14 11 11 10 8 8 7 6 5 3 3 4 4 3 3 3 4 5 6 7 8 8 9
40 40 37 34 31 30 28 26 24 19 16 13 15 18 21 20 18 16 14 13 11 9 10 11 10 8 7 6 7 6 5 4 3 2 2 3 5 7 7 7 8 8 8
41 41 40 37 33 32 29 25 20 16 12 10 14 16 20 21 18 15 13 12 11 10 10 10 10 9 6 4 3 2 1 1 2 3 4 5 6 6 7 7 7 8 9
44 43 42 40 38 35 33 29 23 17 15 14 15 15 19 17 18 18 16 14 13 12 14 11 8 4 2 2 1 0 2 3 4 6 7 8 7 7 7 7 7 7 8
45 44 43 42 39 38 35 32 28 24 22 24 22 21 18 17 17 16 16 16 15 16 13 8 4 2 1 1 1 2 3 5 7 7 6 5 5 6 5 6 7 10 12
45 44 43 42 40 38 35 31 26 26 27 29 27 24 21 19 18 16 16 15 17 17 12 6 1 1 1 1 1 2 4 5 6 5 4 4 5 6 7 9 10 11 13
46 46 44 42 39 37 34 31 28 29 28 27 27 25 22 20 19 17 17 16 16 16 12 7 5 2 5 6 6 7 6 6 5 5 5 7 8 10 10 12 13 14 14
42 44 46 45 43 40 37 35 34 32 31 29 29 28 27 26 24 23 20 18 18 16 12 9 7 5 7 7 7 8 7 6 6 7 9 10 12 12 12 12 13 12 13
41 41 43 45 45 43 40 38 35 32 32 31 29 27 25 25 24 23 21 21 20 18 15 12 7 8 8 8 8 8 7 6 9 11 12 13 14 12 12 11 10 11 12
41 40 39 39 41 41 40 38 36 34 33 32 30 30 29 26 25 24 22 21 21 18 16 11 10 10 10 9 9 7 8 10 12 14 14 14 13 11 11 10 9 8 8
41 41 40 40 39 38 38 38 36 35 34 34 34 34 31 29 27 24 22 22 21 19 17 14 11 12 12 12 10 11 10 13 16 15 13 12 11 9 10 7 7 7 7
42 41 41 41 40 40 40 40 38 36 35 36 35 33 30 29 27 25 24 22 20 21 18 16 14 14 13 12 12 15 16 15 16 16 13 11 9 9 9 6 5 5 7
44 43 43 43 44 43 42 40 40 39 39 36 34 31 30 29 29 27 25 24 24 23 20 18 17 16 14 14 16 17 17 17 15 14 12 11 9 8 7 5 4 5 6
45 44 44 44 44 44 43 43 43 41 39 37 34 32 31 30 29 29 27 28 27 25 22 20 18 16 16 18 18 19 18 17 15 14 13 10 7 6 5 3 3 4 6
Wind_Direction
225 185 185 203 178 166 140 107 227 213 211 220 218 219 201 176 166 150 152 149 172 155 170 160 166 180 198 200 198 191 205 230 231 210 208 206 208 216 226 228 237 246 251
203 182 183 186 162 127 97 7 263 254 238 216 214 214 172 160 145 145 196 152 178 164 146 158 173 179 176 184 186 171 182 203 185 196 199 204 207 220 228 237 250 263 274
196 174 178 177 149 123 107 112 106 164 157 148 160 142 141 149 151 132 152 156 175 156 152 163 171 170 173 166 163 172 186 201 175 201 198 184 201 226 252 249 253 262 286
184 174 172 181 143 130 116 113 118 160 157 138 130 126 134 136 144 158 148 145 145 175 180 182 170 158 162 170 187 192 207 209 190 177 150 164 182 227 245 256 275 271 280
179 176 173 166 128 138 123 132 124 123 126 132 128 131 136 131 115 136 157 153 160 168 177 185 192 197 193 202 215 224 186 217 168 157 140 159 179 221 243 260 268 279 281
177 181 177 152 151 136 139 141 138 132 132 133 132 134 127 132 138 138 165 166 167 174 191 195 194 182 195 199 185 186 147 146 142 140 123 154 169 224 241 266 281 289 286
176 182 175 159 153 156 152 150 158 147 141 141 142 150 150 143 153 170 175 160 170 178 175 168 172 179 195 193 180 150 154 155 155 158 165 169 199 230 248 257 271 278 285
176 180 172 157 151 144 154 156 156 159 161 153 149 149 161 142 130 151 134 149 142 139 156 169 165 172 173 178 148 150 157 153 156 193 184 222 263 274 278 274 261 269 283
181 180 171 162 158 148 150 163 157 146 142 147 139 130 133 134 120 120 146 155 155 148 143 150 153 137 134 135 138 142 147 156 155 178 314 327 335 339 341 335 334 333 332
183 180 172 169 168 159 155 149 148 153 146 144 139 135 126 117 120 129 140 133 136 135 135 136 134 135 135 138 143 147 150 137 86 47 21 356 346 342 343 343 336 333 333
181 178 174 173 172 170 164 160 156 156 149 142 139 133 135 135 132 137 140 141 145 146 143 142 139 138 136 139 140 129 124 91 75 29 357 330 328 332 337 339 338 336 334
182 175 175 175 177 180 175 162 155 152 150 142 137 137 147 145 142 142 141 141 142 143 139 139 139 135 135 136 138 145 140 109 30 357 360 354 349 347 349 347 347 348 352
183 176 177 177 173 173 168 162 156 158 159 155 162 157 152 152 149 144 144 142 141 147 138 138 144 150 163 167 153 126 100 78 65 61 45 28 12 4 8 8 7 4 360
183 179 180 181 176 173 175 174 168 168 170 179 176 175 168 164 163 155 157 158 161 166 165 159 151 145 133 121 107 98 83 51 15 9 16 16 17 21 16 16 10 6 5
180 180 184 184 181 179 180 181 176 179 206 203 186 185 178 172 168 168 170 166 162 159 155 139 124 114 105 87 70 47 358 50 64 56 59 63 64 60 53 44 30 22 16
183 185 187 189 188 187 185 186 184 183 187 184 176 177 175 178 175 171 169 165 163 156 144 131 118 109 80 29 13 187 117 94 89 77 66 59 52 39 37 33 23 16 21
188 188 189 191 192 191 192 195 193 192 187 176 180 181 182 184 180 179 178 176 169 163 156 125 95 96 82 18 44 108 99 89 80 74 68 62 59 55 44 44 42 42 46
195 193 193 193 195 196 196 198 204 208 197 184 181 183 182 185 186 187 189 183 178 170 164 159 146 21 280 220 150 126 134 129 119 116 101 85 76 81 80 77 74 72 66
201 196 196 196 196 198 199 199 203 209 204 198 190 186 186 187 192 194 191 194 193 187 172 179 181 223 229 201 186 165 151 144 137 119 103 99 102 96 96 94 82 72 64
205 205 201 200 200 201 203 204 205 205 203 199 197 196 192 194 193 194 195 195 194 194 186 200 203 222 208 188 175 168 161 150 137 129 128 120 114 111 104 87 79 66 55
205 205 208 208 207 206 210 207 204 204 206 204 202 203 203 201 198 198 195 195 195 198 202 205 219 227 203 186 179 168 160 159 145 138 133 130 122 114 98 86 69 56 48
207 204 204 204 204 203 205 203 204 204 206 207 206 204 205 203 201 200 198 197 196 202 201 203 221 205 195 186 180 178 165 159 152 146 140 131 123 116 98 89 80 72 62
209 208 205 205 205 204 204 206 206 206 209 209 208 208 204 200 200 199 201 200 199 199 198 201 203 203 197 190 184 165 161 161 153 141 137 133 126 112 100 91 84 67 57
212 211 210 208 208 207 208 208 208 210 212 213 212 211 207 203 200 198 198 201 199 199 198 194 194 196 193 187 178 169 159 166 158 148 143 133 122 116 109 100 84 67 45
214 212 211 212 212 211 210 210 211 211 212 213 213 210 206 205 199 197 196 200 201 198 193 189 192 189 185 179 173 166 163 167 161 151 141 135 135 128 118 113 86 53 41
213 212 212 214 214 214 213 213 213 213 212 212 211 209 208 204 200 199 202 198 199 189 188 186 186 187 183 178 172 169 169 169 166 159 147 141 136 129 116 96 71 52 38
Height
1455 1455 1456 1457 1457 1457 1457 1458 1458 1458 1458 1459 1460 1461 1462 1464 1467 1468 1470 1473 1476 1480 1485 1489 1493 1498 1502 1505 1508 1511 1514 1516 1517 1518 1521 1523 1525 1527 1528 1529 1531 1531 1531
1454 1455 1456 1457 1458 1457 1457 1457 1458 1457 1458 1459 1460 1461 1462 1466 1469 1471 1471 1475 1478 1482 1486 1491 1496 1499 1503 1506 1508 1511 1514 1517 1517 1518 1519 1522 1524 1526 1527 1528 1529 1529 1530
1453 1455 1457 1457 1457 1457 1456 1456 1458 1458 1458 1459 1460 1462 1465 1469 1471 1472 1474 1477 1481 1484 1489 1493 1497 1500 1503 1506 1509 1512 1515 1516 1516 1518 1518 1520 1523 1524 1526 1527 1527 1528 1529
1452 1455 1457 1457 1456 1457 1457 1457 1458 1458 1459 1461 1463 1466 1468 1470 1473 1475 1477 1480 1483 1488 1492 1495 1498 1501 1505 1507 1509 1511 1514 1515 1516 1518 1518 1519 1521 1523 1524 1526 1527 1528 1528
1451 1455 1457 1458 1458 1457 1458 1459 1460 1459 1461 1464 1467 1469 1471 1473 1475 1477 1480 1483 1486 1489 1493 1496 1500 1503 1505 1508 1509 1510 1513 1515 1516 1518 1518 1519 1521 1523 1524 1525 1526 1527 1527
1450 1454 1456 1458 1459 1458 1460 1462 1462 1464 1465 1468 1471 1472 1474 1476 1478 1481 1483 1485 1488 1491 1493 1496 1500 1503 1506 1508 1510 1512 1514 1516 1517 1518 1520 1522 1523 1524 1524 1525 1525 1526 1526
1449 1453 1456 1457 1459 1459 1461 1463 1465 1466 1467 1469 1472 1474 1476 1477 1479 1482 1484 1486 1489 1491 1493 1496 1500 1503 1506 1508 1511 1513 1516 1517 1519 1521 1521 1522 1522 1523 1524 1525 1524 1525 1524
1447 1452 1455 1457 1459 1460 1462 1465 1467 1467 1469 1471 1473 1475 1476 1478 1481 1482 1485 1487 1489 1492 1494 1497 1501 1504 1506 1509 1511 1514 1516 1518 1519 1521 1521 1521 1521 1523 1522 1522 1522 1522 1521
1445 1450 1454 1458 1460 1461 1464 1466 1468 1470 1470 1472 1474 1476 1478 1479 1483 1485 1486 1489 1492 1494 1498 1501 1503 1506 1509 1512 1514 1516 1517 1518 1519 1520 1521 1522 1522 1523 1522 1522 1521 1520 1519
1443 1448 1453 1457 1460 1462 1465 1468 1470 1472 1473 1475 1477 1479 1481 1482 1486 1488 1490 1491 1493 1496 1500 1503 1506 1509 1510 1513 1515 1516 1518 1519 1520 1521 1521 1523 1522 1521 1521 1520 1519 1518 1518
1440 1445 1452 1455 1460 1463 1464 1467 1471 1474 1475 1477 1479 1481 1483 1485 1488 1491 1493 1495 1497 1499 1502 1505 1508 1510 1512 1515 1517 1517 1519 1519 1519 1520 1520 1521 1520 1520 1519 1519 1518 1517 1516
1437 1443 1450 1454 1459 1464 1466 1467 1469 1473 1476 1478 1481 1484 1487 1488 1490 1493 1496 1499 1501 1503 1504 1507 1509 1512 1514 1516 1517 1517 1517 1518 1518 1519 1519 1519 1519 1518 1518 1517 1516 1515 1514
1433 1440 1447 1453 1456 1462 1466 1469 1470 1474 1477 1480 1483 1485 1487 1490 1492 1495 1498 1501 1504 1506 1508 1509 1511 1512 1514 1515 1516 1516 1517 1517 1517 1516 1517 1517 1517 1516 1516 1516 1516 1515 1514
1430 1437 1444 1450 1454 1460 1466 1470 1471 1474 1477 1481 1484 1486 1489 1492 1494 1497 1500 1503 1505 1507 1509 1510 1512 1513 1515 1516 1516 1516 1516 1517 1517 1517 1517 1515 1515 1516 1516 1515 1515 1515 1514
1428 1434 1441 1447 1453 1458 1464 1469 1473 1476 1480 1481 1484 1488 1489 1492 1495 1498 1501 1503 1505 1507 1509 1511 1513 1514 1515 1516 1516 1517 1517 1517 1517 1517 1518 1517 1517 1517 1517 1517 1517 1516 1516
1425 1431 1437 1444 1450 1455 1460 1466 1470 1474 1478 1481 1484 1487 1490 1493 1494 1496 1499 1501 1503 1506 1508 1511 1513 1515 1516 1516 1516 1516 1516 1517 1518 1518 1519 1519 1518 1520 1519 1517 1518 1518 1517
1422 1428 1434 1441 1446 1451 1456 1462 1467 1472 1474 1476 1481 1485 1489 1492 1495 1497 1499 1501 1503 1506 1508 1510 1511 1512 1513 1515 1515 1516 1516 1518 1519 1519 1520 1520 1520 1518 1521 1519 1520 1519 1519
1420 1427 1433 1438 1444 1449 1454 1460 1466 1471 1473 1474 1477 1482 1486 1491 1493 1496 1499 1501 1503 1505 1507 1510 1511 1512 1513 1514 1514 1515 1515 1516 1517 1519 1519 1519 1521 1519 1520 1520 1520 1520 1519
1416 1422 1429 1437 1442 1448 1453 1457 1463 1468 1471 1474 1477 1480 1484 1488 1491 1495 1498 1500 1503 1506 1508 1509 1510 1511 1511 1512 1512 1513 1515 1516 1517 1517 1517 1518 1519 1521 1521 1521 1522 1522 1522
1414 1419 1424 1431 1437 1443 1449 1453 1457 1462 1467 1469 1473 1476 1478 1483 1486 1490 1495 1499 1502 1505 1506 1508 1509 1509 1510 1511 1513 1514 1514 1513 1514 1515 1516 1518 1520 1522 1522 1523 1522 1522 1522
1408 1414 1420 1426 1431 1437 1444 1447 1453 1458 1463 1466 1469 1473 1477 1480 1484 1488 1491 1495 1499 1502 1503 1505 1507 1509 1509 1510 1511 1511 1512 1514 1514 1516 1517 1519 1521 1522 1523 1524 1524 1523 1523
1404 1410 1415 1420 1426 1431 1439 1444 1449 1453 1459 1463 1467 1470 1473 1477 1481 1485 1488 1491 1494 1498 1502 1504 1505 1506 1508 1508 1509 1511 1512 1514 1515 1516 1517 1519 1521 1522 1522 1524 1525 1525 1525
1399 1405 1410 1417 1423 1428 1434 1441 1444 1449 1454 1459 1462 1464 1469 1472 1476 1481 1485 1488 1491 1495 1498 1500 1503 1505 1506 1508 1509 1511 1513 1516 1517 1517 1518 1519 1521 1522 1523 1524 1525 1526 1525
1394 1399 1405 1411 1418 1423 1429 1434 1439 1444 1449 1453 1457 1460 1465 1469 1473 1477 1481 1486 1489 1492 1495 1498 1500 1503 1505 1507 1508 1510 1512 1517 1519 1518 1520 1520 1521 1522 1523 1526 1527 1525 1525
1385 1391 1397 1404 1411 1417 1423 1428 1433 1437 1442 1448 1453 1457 1461 1466 1470 1473 1478 1482 1485 1489 1492 1495 1499 1501 1503 1506 1507 1510 1513 1517 1519 1519 1521 1522 1521 1523 1524 1525 1526 1526 1524
1377 1383 1389 1396 1404 1409 1415 1421 1425 1431 1435 1441 1447 1452 1457 1462 1467 1471 1473 1478 1482 1485 1490 1493 1497 1500 1503 1505 1507 1509 1512 1516 1518 1519 1520 1522 1524 1523 1524 1526 1525 1525 1524